Location: Peterborough
(44.3091°N, 78.3197°W)
Time: 18:20:58
(UTC-04:00)

Vanguard 2 Rocket - Pass Details

Date: 26 March 2023
Orbit: 554 x 3314 km, 32.9° (Epoch: 05 June)

Event Time Altitude Azimuth Distance (km) Brightness Sun altitude
Rises 23:49:38 0° 264° (W) 4,416 10.7 -39.1°
Reaches altitude 10° 23:52:18 10° 257° (WSW) 3,746 10.1 -39.4°
Enters shadow 23:56:37 29° 237° (WSW) 2,982 9.3 -39.7°
